Regional Weather Roundup
Issued by NWS

Home | Current Version | Previous Version | Graphics & Text | Print | Product List | Glossary On
Versions: 1 2 3 4 5 6 7 8 9 10 11 12 13 14 15 16 17 18 19 20 21 22 23 24 25 26 27 28 29 30 31 32 33 34 35 36 37 38 39 40 41 42 43 44 45 46 47 48 49 50
000
ASUS43 KMPX 130410
RWRMN
WEATHER ROUNDUP FOR MINNESOTA
NATIONAL WEATHER SERVICE TWIN CITIES/CHANHASSEN MN
1000 PM CST FRI FEB 12 2016


NOTE: "FAIR" INDICATES FEW OR NO CLOUDS BELOW 12,000 FEET WITH NO
SIGNIFICANT WEATHER AND/OR OBSTRUCTIONS TO VISIBILITY. N/A MEANS
CURRENT SKY AND/OR WEATHER CONDITIONS ARE NOT AVAILABLE.

MNZ060>063-068>070-130500-
   Twin Cities Metro

CITY           SKY/WX    TMP DP  RH WIND       PRES   REMARKS
TWIN CITIES    CLEAR      2 -10  57 NW13      30.59R WCI -15
ST PAUL        CLOUDY     4 -10  52 NW15      30.60R WCI -14
CRYSTAL        CLEAR      2 -10  57 NW12      30.58R WCI -15
BLAINE         CLEAR      3  -9  55 NW10      30.57R WCI -12
LAKEVILLE      CLOUDY     0  -9  65 NW13      30.57R WCI -18
EDEN PRAIRIE   CLOUDY     2 -11  54 NW9       30.58R WCI -13
SOUTH ST PAUL  CLOUDY     5 -10  49 NW8       30.58R WCI  -8
LAKE ELMO      FAIR       3 -11  51 NW6       30.57R WCI  -8
$$
MNZ001>005-007-008-013>017-022>024-027-028-130500-
   Northwest Minnesota

CITY           SKY/WX    TMP DP  RH WIND       PRES   REMARKS
BEMIDJI        CLOUDY   -13 -18  77 W5        30.56S WCI -25
HALLOCK        CLOUDY    -9 -17  70 CALM      30.66S
ROSEAU         CLOUDY   -11 -18  70 W7        30.61S WCI -26
WARROAD        CLOUDY   -15 -22  70 W5        30.59S WCI -27
THIEF RVR FALL CLOUDY   -11 -29  40 NW7       30.63R WCI -26
CROOKSTON      CLOUDY    -9 -15  77 N3        30.67F
FOSSTON          N/A    -17 -22  76 CALM      30.61S
DETROIT LAKES  CLOUDY    -9 -13  84 N3        30.60S
MOORHEAD       CLOUDY    -6 -11  77 NW5       30.67F WCI -17
PARK RAPIDS    CLOUDY   -13 -19  75 NW9       30.56S WCI -31
MAHNOMEN       FAIR     -12 -17  81 W3        30.62S
$$
MNZ006-009>011-018-025>026-130500-
   North Central Minnesota

CITY           SKY/WX    TMP DP  RH WIND       PRES   REMARKS
BAUDETTE       CLOUDY   -14 -23  64 W6        30.55S WCI -28
FLAG ISLAND    CLOUDY   -15 -20  76 NW6       30.56F WCI -29
INTL FALLS     CLOUDY   -12 -20  67 NW9       30.53R WCI -30
WASKISH        CLOUDY   -15 -20  76 SW7       30.57R WCI -31
LONGVILLE      CLOUDY    -9 -17  70 NW6       30.55F WCI -23
GRAND RAPIDS   CLOUDY    -8 -18  59 NW12G17   30.51S WCI -27
CRANE LAKE     CLEAR    -11 -20  64 NW1       30.53R
ORR            CLOUDY   -13 -22  64 CALM      30.47S
COOK           CLOUDY    -9 -18  64 W6        30.49S WCI -23
WALKER         FAIR     -11 -18  73 W7        30.56S WCI -27
$$
MNZ012-019>021-037-130500-
   Northeast Minnesota

CITY           SKY/WX    TMP DP  RH WIND       PRES   REMARKS
DULUTH         CLEAR     -7 -19  56 NW12      30.46R WCI -26
ELY            CLEAR    -11 -18  70 NW7       30.45R WCI -26
HIBBING        CLOUDY   -10 -19  64 NW14      30.49R WCI -31
EVELETH        CLEAR     -8 -18  59 NW8       30.49R WCI -23
DULUTH HARBOR  CLEAR      0 -15  50 NW12      30.58R WCI -18
TWO HARBORS    CLEAR     -4 -17  54 NW7       30.46R WCI -18
SILVER BAY     CLEAR     -6 -18  54 W6        30.45R WCI -18
GRAND MARAIS     N/A     -4 -16  56 NW9       30.47R WCI -20
G MARAIS ARPRT CLEAR    -11 -20  64 NW10G21   30.31R WCI -30
$$
MNZ029>031-032-039>041-046>048-054>057-064-130500-
   West Central Minnesota

CITY           SKY/WX    TMP DP  RH WIND       PRES   REMARKS
FERGUS FALLS   CLOUDY    -6 -11  77 NW7       30.67F WCI -20
WHEATON        CLOUDY    -6 -11  77 NW6       30.69R WCI -18
MORRIS         CLOUDY    -4  -9  77 NW12      30.61F WCI -22
ALEXANDRIA     CLOUDY    -6 -14  68 NW7       30.58S WCI -20
ELBOW LAKE     FAIR      -5 -10  77 N8        30.62F WCI -20
WADENA         CLOUDY    -9 -17  70 NW6       30.58S WCI -23
GLENWOOD       CLOUDY    -6 -13  71 NW10      30.59S WCI -23
APPLETON       CLOUDY    -2  -9  71 NW8       30.66S WCI -17
BENSON         CLOUDY    -2  -9  71 CALM      30.63R
ORTONVILLE     CLOUDY    -4 -11  71 W5        30.65R WCI -15
MADISON        PTCLDY     0  -8  71 NW8       30.66S WCI -15
WILLMAR        FAIR       0  -8  71 NW13      30.61S WCI -18
$$
MNZ033>034-036-042>043-049>051-058-059-130500-
   Central Minnesota

CITY           SKY/WX    TMP DP  RH WIND       PRES   REMARKS
ST CLOUD       CLOUDY    -3 -12  65 NW12      30.60R WCI -21
SAUK CENTRE    FAIR      -6 -13  70 NW9       30.60R WCI -23
PAYNESVILLE    PTCLDY    -3 -12  64 NW8G16    30.60S WCI -18
AITKIN         CLOUDY    -4 -18  50 NW5       30.54R WCI -15
PINE RIVER     CLOUDY    -8 -15  71 NW6       30.58S WCI -21
BRAINERD       CLOUDY    -6 -16  61 NW10      30.56R WCI -24
STAPLES        CLOUDY   -11 -17  77 NW9       30.58R WCI -29
LONG PRAIRIE   FAIR      -8 -15  71 W8        30.59R WCI -23
LITTLE FALLS   CLOUDY    -4 -15  59 NW8       30.60R WCI -19
LITCHFIELD     CLOUDY     0  -9  65 NW14      30.60R WCI -19
BUFFALO        CLOUDY    -1 -11  60 W6        30.61R WCI -12
MAPLE LAKE     CLOUDY     0 -10  65 NW9       30.60R WCI -16
$$
MNZ037-044-045-052-053-130500-
   East Central Minnesota

CITY           SKY/WX    TMP DP  RH WIND       PRES   REMARKS
PRINCETON      CLOUDY     0 -11  60 W8        30.58R WCI -15
MORA           CLEAR      0 -15  50 N12       30.58R WCI -18
CAMBRIDGE      CLEAR      1 -11  55 CALM      30.56R
RUSH CITY      MOCLDY     0 -14  53 NW9       30.57R WCI -16
MOOSE LAKE     CLEAR     -4 -17  54 NW6       30.53R WCI -16
HINCKLEY       FAIR       0 -13  55 NW7       30.56R WCI -13
CLOQUET        CLEAR     -6 -18  54 NW7       30.49S WCI -20
MCGREGOR       CLOUDY    -4 -15  59 NW8       30.54S WCI -19
$$
MNZ071>073-080-081-089-090-097-098-130500-
   Southwest Minnesota

CITY           SKY/WX    TMP DP  RH WIND       PRES   REMARKS
MONTEVIDEO     CLOUDY    -2  -9  71 N7        30.66S WCI -16
GRANITE FALLS  CLOUDY     0  -5  78 W9        30.66S WCI -15
CANBY          CLOUDY     1  -5  76 W7        30.65S WCI -12
MARSHALL       CLOUDY    -2  -8  76 NW12      30.64  WCI -20
REDWOOD FALLS  CLOUDY     0  -7  72 NW10      30.63S WCI -16
OLIVIA         CLOUDY     1  -6  71 NW13      30.62R WCI -16
PIPESTONE      CLOUDY     0 -11  60 N3        30.57R
WINDOM         CLOUDY    -2  -8  78 NW16      30.57S WCI -23
WORTHINGTON    CLOUDY    -2  -9  71 NW7       30.58S WCI -16
JACKSON        CLOUDY     0  -8  71 NW14      30.57S WCI -19
TRACY          CLOUDY    -1  -6  78 NW9       30.61S WCI -16
SLAYTON        CLOUDY    -3  -8  80 NW10      30.58R WCI -20
$$
MNZ065>067-074>077-082>085-091>093-130500-
   South Central Minnesota

CITY           SKY/WX    TMP DP  RH WIND       PRES   REMARKS
MANKATO        CLOUDY     1  -9  60 NW12      30.59R WCI -15
NEW ULM        CLOUDY     0  -9  65 NW13G20   30.61R WCI -18
ST JAMES       CLOUDY     0  -6  78 NW14      30.62R WCI -19
FAIRMONT       CLOUDY     1  -8  66 NW13      30.57S WCI -16
GLENCOE        CLOUDY     2  -7  66 NW9       30.60R WCI -13
FARIBAULT      CLOUDY     1  -9  60 NW9       30.57R WCI -14
OWATONNA       CLOUDY     0  -9  65 NW8       30.56R WCI -15
WASECA         CLOUDY     1  -8  66 NW8       30.58R WCI -12
ALBERT LEA     CLOUDY     1  -8  66 NW8       30.55R WCI -12
$$
MNZ078>079-086>088-094>096-130500-
   Southeast Minnesota

CITY           SKY/WX    TMP DP  RH WIND       PRES   REMARKS
ROCHESTER      CLOUDY    -2 -11  65 NW13      30.51R WCI -20
RED WING       CLOUDY     1 -17  42 NW2       30.56R
STANTON        CLOUDY     0 -11  61 W7        30.57R WCI -13
DODGE CENTER   CLOUDY     0 -11  60 NW13      30.52R WCI -18
WINONA         CLEAR      5  -9  51 NW8       30.57R WCI  -8
AUSTIN         CLOUDY     1  -8  66 NW7       30.54R WCI -11
PRESTON        CLOUDY    -3 -13  62 NW10      30.51R WCI -20
$$
ABBREVIATIONS USED IN REMARKS
   TC - TEMPERATURES IN CELSIUS
  WCI - WIND CHILL INDEX
   HX - HEAT INDEX
  VSB - VISIBILITY
$$



USA.gov is the U.S. government's official web portal to all federal, state and local government web resources and services.